Location: Texas Valley
(42.4862°N, 75.9730°W)
Time: 15:09:28
(UTC+00:00)

BlueWalker 3 - Visible Passes

Search period start: 15 April 2024 00:00
Search period end: 25 April 2024 00:00
Orbit: 485 x 496 km, 53.2° (Epoch: 15 April)

Date Brightness Start Highest point End Pass type
(mag) Time Alt. Az. Time Alt. Az. Time Alt. Az.
15 Apr 3.3 07:52:58 26° NNW 07:54:29 37° NNE 07:58:03 10° E visible
15 Apr 2.5 09:29:10 10° WNW 09:32:43 36° SW 09:36:13 10° SSE visible
16 Apr 3.5 00:52:10 10° S 00:54:01 17° SE 00:54:01 17° SE visible
16 Apr 3.5 07:30:32 34° NE 07:30:32 34° NE 07:33:30 10° E visible
16 Apr 2.4 09:05:04 13° WNW 09:08:12 38° SW 09:11:45 10° SSE visible
17 Apr 3.4 00:27:45 10° S 00:30:17 17° SE 00:32:49 10° E visible
17 Apr 2.2 02:04:20 10° WSW 02:07:53 65° WNW 02:07:53 65° WNW visible
17 Apr 4.9 07:08:50 10° E 07:08:50 10° E 07:08:56 10° E visible
17 Apr 2.3 08:43:26 39° SW 08:43:40 40° SW 08:47:15 10° SSE visible
18 Apr 2.1 01:39:47 10° WSW 01:43:35 72° NW 01:46:24 17° NE visible
18 Apr 4.7 03:19:23 10° WNW 03:20:57 17° NW 03:20:57 17° NW visible
18 Apr 4.3 08:22:30 11° SSE 08:22:30 11° SSE 08:22:44 10° SSE visible
19 Apr 2.0 01:15:12 10° WSW 01:19:01 75° NW 01:22:51 10° NE visible
19 Apr 4.3 02:54:46 10° WNW 02:57:46 21° NNW 02:58:39 20° N visible
20 Apr 2.0 00:50:38 10° WSW 00:54:26 79° NW 00:58:16 10° NE visible
20 Apr 4.3 02:30:07 10° WNW 02:33:09 22° NNW 02:35:44 12° NNE visible
20 Apr 5.2 04:09:57 10° NW 04:10:12 11° NW 04:10:12 11° NW visible
21 Apr 2.0 00:26:01 10° SW 00:29:50 82° NW 00:33:40 10° NE visible
21 Apr 4.3 02:05:28 10° WNW 02:08:32 22° NNW 02:11:36 10° NE visible
21 Apr 4.9 03:45:20 10° NW 03:46:54 15° NNW 03:46:54 15° NNW visible
22 Apr 4.3 01:40:49 10° WNW 01:43:53 23° NNW 01:46:59 10° NE visible
22 Apr 4.6 03:20:42 10° NW 03:23:12 16° N 03:23:22 16° N visible
23 Apr 4.3 01:16:08 10° WNW 01:19:14 23° NNW 01:22:22 10° NE visible
23 Apr 4.5 02:56:02 10° NW 02:58:32 16° N 02:59:40 15° NNE visible
24 Apr 4.2 00:51:26 10° WNW 00:54:34 24° NNW 00:57:42 10° NE visible
24 Apr 4.6 02:31:22 10° NW 02:33:51 16° N 02:35:54 12° NE visible
24 Apr 5.0 04:09:41 10° NW 04:10:19 13° NNW 04:10:19 13° NNW visible
